Jamestown, NY

3:04 AM EST on January 23, 2017 (GMT -0500)
Chautauqua County-Jamestown

Weather History for KJHW - December, 2012

Change the Weather History Date:

Saturday, December 22, 2012

  Actual Average Record
Temperature  
Mean Temperature 26 °F -  
Max Temperature 28 °F 32 °F 59 °F (2013)
Min Temperature 24 °F 15 °F -4 °F (1980)
Degree Days  
Heating Degree Days 39    
Moisture  
Dew Point 21 °F    
Average Humidity 77    
Maximum Humidity 86    
Minimum Humidity 69    
Precipitation  
Precipitation 0.01 in - - ()
Sea Level Pressure  
Sea Level Pressure 29.78 in    
Wind  
Wind Speed 21 mph (WNW)    
Max Wind Speed 32 mph    
Max Gust Speed 45 mph    
Visibility 4 miles    
Events      
Averages and records for this station are not official NWS values.
T = Trace of Precipitation, MM = Missing Value Source: NWS Daily Summary

Daily Weather History Graph

Daily Weather History Graph

Search for Another Location

Airport or City:

Trip Planner

Search our weather history database for the weather conditions in past years. The results will help you decide how hot, cold, wet, or windy it might be!

Date:

Astronomy

Dec. 22, 2012 Rise Set
Actual Time 7:42 AM EST 4:48 PM EST
Civil Twilight 7:11 AM EST 5:20 PM EST
Nautical Twilight 6:35 AM EST 5:56 PM EST
Astronomical Twilight 6:01 AM EST 6:30 PM EST
Moon 1:08 PM EST (12/22) 2:23 AM EST (12/22)
Length of Visible Light 10h 09m
Length of Day
9h 06m
Waxing Gibbous, 73% of the Moon is Illuminated
Dec 22
Waxing Gibbous
Dec 28
Full
Jan 4
Last Quarter
Jan 11
New
Jan 18
First Quarter

Hourly Weather History & Observations

Time (EST) Temp. Windchill Dew Point Humidity Pressure Visibility Wind Dir Wind Speed Gust Speed Precip Events Conditions
12:15 AM 26.6 °F 12.4 °F 21.2 °F 80% 29.47 in 2.5 mi NW 21.9 mph 29.9 mph N/A   Overcast
12:35 AM 26.6 °F 13.4 °F 23.0 °F 86% 29.48 in 1.8 mi NW 18.4 mph 25.3 mph N/A   Overcast
12:55 AM 26.6 °F 13.8 °F 23.0 °F 86% 29.49 in 1.5 mi NW 17.3 mph 27.6 mph N/A   Overcast
1:15 AM 26.6 °F 12.4 °F 23.0 °F 86% 29.50 in 1.0 mi NW 21.9 mph 29.9 mph N/A   Overcast
1:35 AM 26.6 °F 12.0 °F 23.0 °F 86% 29.51 in 1.0 mi NW 23.0 mph 31.1 mph N/A   Overcast
1:55 AM 26.6 °F 13.4 °F 21.2 °F 80% 29.52 in 1.0 mi NW 18.4 mph 31.1 mph N/A   Overcast
2:15 AM 26.6 °F 11.7 °F 21.2 °F 80% 29.54 in 1.0 mi NW 24.2 mph 33.4 mph N/A   Overcast
2:35 AM 24.8 °F 11.1 °F 21.2 °F 86% 29.55 in 0.8 mi NW 18.4 mph 29.9 mph N/A   Overcast
2:55 AM 26.6 °F 13.4 °F 23.0 °F 86% 29.56 in 1.0 mi NW 18.4 mph 26.5 mph N/A   Overcast
3:15 AM 26.6 °F 12.7 °F 23.0 °F 86% 29.57 in 0.5 mi NW 20.7 mph 33.4 mph N/A   Overcast
3:35 AM 26.6 °F 12.4 °F 23.0 °F 86% 29.58 in 0.5 mi NW 21.9 mph 43.7 mph N/A   Overcast
3:55 AM 26.6 °F 12.4 °F 23.0 °F 86% 29.59 in 0.8 mi NW 21.9 mph 39.1 mph N/A   Overcast
4:15 AM 26.6 °F 12.4 °F 23.0 °F 86% 29.60 in 1.2 mi NW 21.9 mph 35.7 mph 0.01 in   Overcast
4:35 AM 26.6 °F 12.0 °F 23.0 °F 86% 29.61 in 1.2 mi NW 23.0 mph 34.5 mph 0.01 in   Overcast
4:55 AM 26.6 °F 10.6 °F 21.2 °F 80% 29.61 in 1.0 mi NW 28.8 mph 41.4 mph 0.01 in   Overcast
5:15 AM 26.6 °F 11.4 °F 21.2 °F 80% 29.63 in 1.0 mi NW 25.3 mph 36.8 mph N/A   Overcast
5:35 AM - - - N/A% 29.64 in 1.5 mi NW 32.2 mph 40.3 mph N/A   Overcast
5:55 AM 26.6 °F 11.1 °F 19.4 °F 74% 29.66 in 1.5 mi NW 26.5 mph 41.4 mph N/A   Overcast
6:15 AM 26.6 °F 12.0 °F 19.4 °F 74% 29.67 in 5.0 mi NW 23.0 mph 28.8 mph N/A   Overcast
6:35 AM 26.6 °F 10.0 °F 19.4 °F 74% 29.67 in 2.5 mi NW 31.1 mph 43.7 mph N/A   Overcast
6:55 AM 26.6 °F 11.1 °F 19.4 °F 74% 29.69 in 2.5 mi NW 26.5 mph 39.1 mph N/A   Overcast
7:15 AM 26.6 °F 11.7 °F 19.4 °F 74% 29.70 in 1.2 mi NW 24.2 mph 38.0 mph N/A   Overcast
7:35 AM 26.6 °F 11.1 °F 19.4 °F 74% 29.71 in 0.8 mi NW 26.5 mph 36.8 mph N/A   Overcast
7:55 AM 28.4 °F 15.1 °F 19.4 °F 69% 29.72 in 0.5 mi NW 20.7 mph 43.7 mph N/A   Overcast
8:15 AM 26.6 °F 10.8 °F 19.4 °F 74% 29.73 in 0.8 mi WNW 27.6 mph 35.7 mph N/A   Overcast
8:35 AM 26.6 °F 11.7 °F 21.2 °F 80% 29.74 in 1.5 mi NW 24.2 mph 38.0 mph N/A   Overcast
8:55 AM 26.6 °F 11.4 °F 21.2 °F 80% 29.75 in 0.2 mi NW 25.3 mph 34.5 mph N/A   Overcast
9:15 AM 28.4 °F 12.7 °F 21.2 °F 74% 29.75 in 0.8 mi NW 29.9 mph 36.8 mph N/A   Overcast
9:35 AM 28.4 °F 12.3 °F 23.0 °F 80% 29.77 in 0.5 mi NW 32.2 mph 38.0 mph N/A   Overcast
9:55 AM 28.4 °F 13.5 °F 21.2 °F 74% 29.79 in 0.5 mi WNW 26.5 mph 39.1 mph N/A   Overcast
10:15 AM 28.4 °F 13.5 °F 21.2 °F 74% 29.79 in 0.8 mi WNW 26.5 mph 44.9 mph N/A   Overcast
10:35 AM 28.4 °F 14.7 °F 21.2 °F 74% 29.80 in 0.2 mi WNW 21.9 mph 39.1 mph N/A   Overcast
10:55 AM 28.4 °F 14.4 °F 21.2 °F 74% 29.80 in 1.5 mi WNW 23.0 mph 33.4 mph N/A   Overcast
11:15 AM 28.4 °F 13.5 °F 21.2 °F 74% 29.81 in 0.5 mi WNW 26.5 mph 39.1 mph N/A   Overcast
11:35 AM 28.4 °F 13.0 °F 21.2 °F 74% 29.80 in 0.5 mi NW 28.8 mph 38.0 mph N/A   Overcast
11:55 AM 28.4 °F 14.4 °F 19.4 °F 69% 29.81 in 0.8 mi WNW 23.0 mph 40.3 mph N/A   Overcast
12:15 PM 28.4 °F 13.5 °F 19.4 °F 69% 29.81 in 1.2 mi NW 26.5 mph 36.8 mph N/A   Overcast
12:35 PM 28.4 °F 13.5 °F 19.4 °F 69% 29.81 in 1.8 mi NW 26.5 mph 39.1 mph N/A   Overcast
12:55 PM 28.4 °F 14.4 °F 19.4 °F 69% 29.82 in 1.8 mi WNW 23.0 mph 39.1 mph N/A   Overcast
1:15 PM 28.4 °F 14.4 °F 19.4 °F 69% 29.82 in 1.8 mi WNW 23.0 mph 38.0 mph N/A   Overcast
1:35 PM 28.4 °F 15.8 °F 21.2 °F 74% 29.83 in 2.5 mi WNW 18.4 mph 33.4 mph N/A   Overcast
1:55 PM 28.4 °F 13.8 °F 21.2 °F 74% 29.83 in 7.0 mi WNW 25.3 mph 32.2 mph N/A   Overcast
2:15 PM 28.4 °F 15.4 °F 19.4 °F 69% 29.84 in 7.0 mi WNW 19.6 mph 27.6 mph N/A   Overcast
2:35 PM 28.4 °F 16.2 °F 19.4 °F 69% 29.85 in 9.0 mi WNW 17.3 mph 26.5 mph N/A   Overcast
2:55 PM 28.4 °F 15.1 °F 21.2 °F 74% 29.86 in 5.0 mi WNW 20.7 mph 29.9 mph N/A   Overcast
3:15 PM 28.4 °F 16.6 °F 21.2 °F 74% 29.87 in 8.0 mi WNW 16.1 mph 26.5 mph N/A   Overcast
3:35 PM 26.6 °F 14.7 °F 21.2 °F 80% 29.88 in 8.0 mi WNW 15.0 mph 24.2 mph N/A   Overcast
3:55 PM 26.6 °F 13.4 °F 21.2 °F 80% 29.89 in 5.0 mi West 18.4 mph 31.1 mph N/A   Overcast
4:15 PM 26.6 °F 13.4 °F 21.2 °F 80% 29.89 in 9.0 mi West 18.4 mph 26.5 mph N/A   Overcast
4:35 PM 26.6 °F 14.3 °F 19.4 °F 74% 29.90 in 10.0 mi WNW 16.1 mph 24.2 mph N/A   Overcast
4:55 PM 26.6 °F 15.2 °F 19.4 °F 74% 29.91 in 10.0 mi WNW 13.8 mph 20.7 mph N/A   Overcast
5:15 PM 26.6 °F 15.7 °F 19.4 °F 74% 29.91 in 10.0 mi West 12.7 mph 20.7 mph N/A   Overcast
5:35 PM 26.6 °F 14.3 °F 19.4 °F 74% 29.91 in 10.0 mi West 16.1 mph 25.3 mph N/A   Overcast
5:55 PM 26.6 °F 15.2 °F 19.4 °F 74% 29.92 in 10.0 mi West 13.8 mph 20.7 mph N/A   Overcast
6:15 PM 26.6 °F 14.3 °F 19.4 °F 74% 29.92 in 10.0 mi West 16.1 mph 23.0 mph N/A   Overcast
6:35 PM 26.6 °F 16.2 °F 19.4 °F 74% 29.93 in 10.0 mi West 11.5 mph 21.9 mph N/A   Overcast
6:55 PM 26.6 °F 16.2 °F 21.2 °F 80% 29.93 in 10.0 mi West 11.5 mph 17.3 mph N/A   Overcast
7:15 PM 26.6 °F 16.2 °F 19.4 °F 74% 29.93 in 10.0 mi West 11.5 mph 19.6 mph N/A   Overcast
7:35 PM 26.6 °F 14.7 °F 19.4 °F 74% 29.93 in 10.0 mi West 15.0 mph 19.6 mph N/A   Overcast
7:55 PM 26.6 °F 15.7 °F 21.2 °F 80% 29.93 in 10.0 mi West 12.7 mph 18.4 mph N/A   Overcast
8:15 PM 26.6 °F 14.3 °F 21.2 °F 80% 29.93 in 10.0 mi West 16.1 mph 21.9 mph N/A   Overcast
8:35 PM 26.6 °F 15.7 °F 21.2 °F 80% 29.93 in 10.0 mi West 12.7 mph 21.9 mph N/A   Overcast
8:55 PM 26.6 °F 15.7 °F 21.2 °F 80% 29.93 in 10.0 mi West 12.7 mph - N/A   Overcast
9:15 PM 26.6 °F 14.3 °F 21.2 °F 80% 29.93 in 10.0 mi West 16.1 mph - N/A   Overcast
9:35 PM 26.6 °F 14.7 °F 21.2 °F 80% 29.93 in 10.0 mi West 15.0 mph - N/A   Overcast
9:55 PM 26.6 °F 15.7 °F 21.2 °F 80% 29.93 in 10.0 mi West 12.7 mph 17.3 mph N/A   Overcast
10:15 PM 26.6 °F 18.2 °F 21.2 °F 80% 29.93 in 5.0 mi West 8.1 mph - N/A   Overcast
10:35 PM 26.6 °F 16.2 °F 21.2 °F 80% 29.94 in 10.0 mi West 11.5 mph 17.3 mph N/A   Overcast
10:55 PM 26.6 °F 16.8 °F 21.2 °F 80% 29.94 in 10.0 mi West 10.4 mph - N/A   Overcast
11:15 PM 26.6 °F 16.2 °F 21.2 °F 80% 29.93 in 10.0 mi West 11.5 mph - N/A   Overcast
11:35 PM 26.6 °F 15.2 °F 21.2 °F 80% 29.93 in 7.0 mi West 13.8 mph 19.6 mph N/A   Mostly Cloudy
11:55 PM 26.6 °F 15.7 °F 21.2 °F 80% 29.92 in 5.0 mi West 12.7 mph - N/A   Overcast